Location: *
(42.3377°N, 71.0868°W)
Time: 08:58:33
(UTC+00:00)

Daily predictions for brighter satellites

Satellite Brightness Start Highest point End
(mag) Time Altitude Azimuth Time Altitude Azimuth Time Altitude Azimuth
Meteor 1-16 Rocket 4.3 23:37:28 10° S 23:42:44 56° E 23:48:12 10° NNE
Cosmos 1437 2.6 23:42:46 10° N 23:45:46 59° ENE 23:48:44 10° SSE
Cosmos 1602 Rocket 4.2 23:41:55 10° NNW 23:46:17 62° W 23:50:34 10° S
IRIDIUM 104 4.4 23:43:24 10° N 23:48:36 62° E 23:53:45 10° SSE
Cosmos 1726 2.1 23:44:58 10° S 23:48:41 77° E 23:52:26 10° N
ARGOS Delta rocket 4.2 23:44:20 10° SSE 23:49:37 69° ENE 23:55:05 10° N
Cosmos 2058 Rocket 4.1 23:46:06 10° SE 23:49:50 26° E 23:53:34 10° NNE
ISS -0.7 23:49:13 10° WSW 23:50:02 11° SW 23:50:52 10° SW
Cosmos 1726 Rocket 4.0 23:47:42 10° SSE 23:51:51 41° E 23:56:02 10° NNE
SL-4 R/B 3.1 23:48:43 10° W 23:51:52 34° NNW 23:55:01 10° NE
Aureole 1 Rocket 4.2 23:44:34 10° S 23:51:59 58° ESE 23:57:51 10° NNE
Cosmos 1461 3.9 23:48:25 10° NNW 23:52:40 37° NE 23:57:00 10° ESE
Cosmos 1703 3.8 23:49:27 10° N 23:53:13 41° ENE 23:56:59 10° SSE
Cosmos 1908 3.6 23:50:43 10° SSE 23:54:21 41° E 23:58:02 10° NNE
Cosmos 1340 Rocket 3.7 23:52:42 10° SSE 23:56:14 29° E 23:59:45 10° NNE
